Wetterdaten: Dienstag, 14.01.2020
Datum Zeit Temp. Aussen Temp. o. S. Temp +5cm Feuchte Auss Luftdruck Regen Sonnenschein Regendauer Solar Windben Empfang
14.01.2020 00:00 8,7 C 7,8 C 7,2 C 90 % 1008,9 hPa 0,0 l/m 0 min 0 min 0 W/m 35,4 km/h (5 Bft) 95,74 %
14.01.2020 00:02 8,7 C 7,8 C 7,2 C 90 % 1008,9 hPa 0,0 l/m 0 min 0 min 0 W/m 25,7 km/h (4 Bft) 94,74 %
14.01.2020 00:04 8,7 C 7,8 C 7,2 C 90 % 1008,9 hPa 0,0 l/m 0 min 0 min 0 W/m 35,4 km/h (5 Bft) 97,87 %
14.01.2020 00:06 8,7 C 7,8 C 7,2 C 90 % 1008,9 hPa 0,0 l/m 0 min 0 min 0 W/m 22,5 km/h (4 Bft) 93,62 %
14.01.2020 00:08 8,7 C 7,8 C 7,2 C 90 % 1008,9 hPa 0,0 l/m 0 min 0 min 0 W/m 35,4 km/h (5 Bft) 95,74 %
14.01.2020 00:10 8,7 C 7,8 C 7,2 C 90 % 1008,9 hPa 0,0 l/m 0 min 0 min 0 W/m 32,2 km/h (5 Bft) 97,87 %
14.01.2020 00:12 8,7 C 7,8 C 7,2 C 90 % 1008,9 hPa 0,0 l/m 0 min 0 min 0 W/m 25,7 km/h (4 Bft) 97,83 %
14.01.2020 00:14 8,7 C 7,8 C 7,2 C 90 % 1008,8 hPa 0,0 l/m 0 min 0 min 0 W/m 29,0 km/h (5 Bft) 97,87 %
14.01.2020 00:16 8,7 C 7,8 C 7,2 C 90 % 1008,8 hPa 0,0 l/m 0 min 0 min 0 W/m 25,7 km/h (4 Bft) 97,87 %
14.01.2020 00:18 8,7 C 7,8 C 7,8 C 90 % 1008,8 hPa 0,0 l/m 0 min 0 min 0 W/m 22,5 km/h (4 Bft) 97,87 %
14.01.2020 00:20 8,7 C 8,3 C 7,8 C 90 % 1008,7 hPa 0,0 l/m 0 min 0 min 0 W/m 35,4 km/h (5 Bft) 93,62 %
14.01.2020 00:22 8,7 C 8,3 C 7,8 C 90 % 1008,8 hPa 0,0 l/m 0 min 0 min 0 W/m 29,0 km/h (5 Bft) 95,74 %
14.01.2020 00:24 8,7 C 8,3 C 7,8 C 90 % 1008,6 hPa 0,0 l/m 0 min 0 min 0 W/m 25,7 km/h (4 Bft) 93,48 %
14.01.2020 00:26 8,7 C 8,3 C 7,2 C 90 % 1008,7 hPa 0,0 l/m 0 min 0 min 0 W/m 29,0 km/h (5 Bft) 93,62 %
14.01.2020 00:28 8,8 C 8,3 C 7,8 C 90 % 1008,6 hPa 0,0 l/m 0 min 0 min 0 W/m 29,0 km/h (5 Bft) 93,62 %
14.01.2020 00:30 8,8 C 8,3 C 7,8 C 90 % 1008,7 hPa 0,0 l/m 0 min 0 min 0 W/m 25,7 km/h (4 Bft) 95,74 %
14.01.2020 00:32 8,8 C 8,3 C 7,8 C 90 % 1008,6 hPa 0,0 l/m 0 min 0 min 0 W/m 29,0 km/h (5 Bft) 93,62 %
14.01.2020 00:34 8,8 C 8,3 C 7,8 C 90 % 1008,6 hPa 0,0 l/m 0 min 0 min 0 W/m 38,6 km/h (5 Bft) 97,87 %
14.01.2020 00:36 8,8 C 8,3 C 7,8 C 90 % 1008,6 hPa 0,0 l/m 0 min 0 min 0 W/m 38,6 km/h (5 Bft) 97,83 %
14.01.2020 00:38 8,8 C 8,3 C 7,8 C 90 % 1008,6 hPa 0,0 l/m 0 min 0 min 0 W/m 38,6 km/h (5 Bft) 97,87 %
14.01.2020 00:40 8,8 C 8,3 C 7,8 C 90 % 1008,6 hPa 0,0 l/m 0 min 0 min 0 W/m 22,5 km/h (4 Bft) 97,87 %
14.01.2020 00:42 8,8 C 8,3 C 7,8 C 90 % 1008,5 hPa 0,0 l/m 0 min 0 min 0 W/m 19,3 km/h (3 Bft) 95,74 %
14.01.2020 00:44 8,8 C 7,8 C 7,8 C 90 % 1008,5 hPa 0,0 l/m 0 min 2 min 0 W/m 29,0 km/h (5 Bft) 97,87 %
14.01.2020 00:46 8,8 C 7,8 C 7,2 C 90 % 1008,5 hPa 0,0 l/m 0 min 2 min 0 W/m 22,5 km/h (4 Bft) 97,87 %
14.01.2020 00:48 8,8 C 7,8 C 7,2 C 90 % 1008,4 hPa 0,0 l/m 0 min 0 min 0 W/m 22,5 km/h (4 Bft) 97,83 %
14.01.2020 00:50 8,8 C 7,8 C 7,2 C 90 % 1008,3 hPa 0,0 l/m 0 min 0 min 0 W/m 25,7 km/h (4 Bft) 97,87 %
14.01.2020 00:52 8,8 C 7,8 C 7,2 C 90 % 1008,4 hPa 0,0 l/m 0 min 0 min 0 W/m 22,5 km/h (4 Bft) 97,87 %
14.01.2020 00:54 8,8 C 7,8 C 7,2 C 90 % 1008,3 hPa 0,0 l/m 0 min 0 min 0 W/m 22,5 km/h (4 Bft) 97,87 %
14.01.2020 00:56 8,8 C 7,8 C 7,2 C 90 % 1008,2 hPa 0,0 l/m 0 min 0 min 0 W/m 25,7 km/h (4 Bft) 97,87 %
14.01.2020 00:58 8,8 C 7,8 C 7,2 C 90 % 1008,1 hPa 0,0 l/m 0 min 0 min 0 W/m 22,5 km/h (4 Bft) 97,87 %
14.01.2020 01:00 8,8 C 7,8 C 7,2 C 90 % 1008,1 hPa 0,0 l/m 0 min 0 min 0 W/m 29,0 km/h (5 Bft) 97,83 %
14.01.2020 01:02 8,8 C 7,8 C 7,2 C 90 % 1008,1 hPa 0,0 l/m 0 min 0 min 0 W/m 29,0 km/h (5 Bft) 97,87 %
14.01.2020 01:04 8,8 C 7,8 C 7,2 C 90 % 1008,1 hPa 0,0 l/m 0 min 0 min 0 W/m 29,0 km/h (5 Bft) 97,87 %
14.01.2020 01:06 8,8 C 7,8 C 7,2 C 90 % 1008,1 hPa 0,0 l/m 0 min 0 min 0 W/m 22,5 km/h (4 Bft) 95,74 %
14.01.2020 01:08 8,8 C 7,8 C 7,2 C 90 % 1008,1 hPa 0,0 l/m 0 min 0 min 0 W/m 25,7 km/h (4 Bft) 97,87 %
14.01.2020 01:10 8,8 C 7,8 C 7,2 C 90 % 1008,1 hPa 0,0 l/m 0 min 0 min 0 W/m 29,0 km/h (5 Bft) 97,87 %
14.01.2020 01:12 8,8 C 7,8 C 7,2 C 90 % 1008,1 hPa 0,0 l/m 0 min 0 min 0 W/m 25,7 km/h (4 Bft) 97,83 %
14.01.2020 01:14 8,8 C 7,8 C 7,2 C 90 % 1008,2 hPa 0,0 l/m 0 min 0 min 0 W/m 16,1 km/h (3 Bft) 100,00 %
14.01.2020 01:16 8,8 C 7,8 C 7,2 C 90 % 1008,0 hPa 0,0 l/m 0 min 0 min 0 W/m 25,7 km/h (4 Bft) 100,00 %
14.01.2020 01:18 8,8 C 7,8 C 7,2 C 90 % 1008,0 hPa 0,0 l/m 0 min 0 min 0 W/m 19,3 km/h (3 Bft) 100,00 %
14.01.2020 01:20 8,7 C 7,8 C 7,2 C 90 % 1007,8 hPa 0,0 l/m 0 min 0 min 0 W/m 19,3 km/h (3 Bft) 97,87 %
14.01.2020 01:22 8,7 C 7,8 C 7,2 C 90 % 1007,8 hPa 0,0 l/m 0 min 0 min 0 W/m 22,5 km/h (4 Bft) 100,00 %
14.01.2020 01:24 8,7 C 7,8 C 7,2 C 90 % 1007,6 hPa 0,0 l/m 0 min 0 min 0 W/m 19,3 km/h (3 Bft) 97,83 %
14.01.2020 01:26 8,7 C 7,8 C 7,2 C 90 % 1007,6 hPa 0,0 l/m 0 min 0 min 0 W/m 22,5 km/h (4 Bft) 100,00 %
14.01.2020 01:28 8,6 C 7,8 C 7,2 C 90 % 1007,6 hPa 0,0 l/m 0 min 0 min 0 W/m 22,5 km/h (4 Bft) 100,00 %
14.01.2020 01:30 8,6 C 7,8 C 7,2 C 90 % 1007,6 hPa 0,0 l/m 0 min 0 min 0 W/m 29,0 km/h (5 Bft) 97,87 %
14.01.2020 01:32 8,6 C 7,8 C 7,2 C 90 % 1007,5 hPa 0,0 l/m 0 min 0 min 0 W/m 29,0 km/h (5 Bft) 100,00 %
14.01.2020 01:34 8,6 C 7,8 C 7,2 C 90 % 1007,5 hPa 0,0 l/m 0 min 0 min 0 W/m 19,3 km/h (3 Bft) 100,00 %
14.01.2020 01:36 8,6 C 7,8 C 7,2 C 90 % 1007,6 hPa 0,0 l/m 0 min 0 min 0 W/m 25,7 km/h (4 Bft) 100,00 %
14.01.2020 01:38 8,6 C 7,8 C 7,2 C 90 % 1007,7 hPa 0,0 l/m 0 min 0 min 0 W/m 19,3 km/h (3 Bft) 100,00 %
14.01.2020 01:40 8,6 C 7,8 C 7,2 C 90 % 1007,8 hPa 0,0 l/m 0 min 0 min 0 W/m 19,3 km/h (3 Bft) 95,74 %
14.01.2020 01:42 8,5 C 7,8 C 7,2 C 91 % 1007,7 hPa 0,0 l/m 0 min 0 min 0 W/m 16,1 km/h (3 Bft) 100,00 %
14.01.2020 01:44 8,5 C 7,8 C 7,2 C 91 % 1007,8 hPa 0,0 l/m 0 min 0 min 0 W/m 19,3 km/h (3 Bft) 100,00 %
14.01.2020 01:46 8,5 C 7,8 C 7,2 C 91 % 1007,7 hPa 0,0 l/m 0 min 0 min 0 W/m 19,3 km/h (3 Bft) 100,00 %
14.01.2020 01:48 8,5 C 7,8 C 7,2 C 91 % 1007,7 hPa 0,0 l/m 0 min 0 min 0 W/m 16,1 km/h (3 Bft) 100,00 %
14.01.2020 01:50 8,5 C 7,8 C 7,2 C 91 % 1007,8 hPa 0,0 l/m 0 min 0 min 0 W/m 22,5 km/h (4 Bft) 97,87 %
14.01.2020 01:52 8,5 C 7,8 C 7,2 C 91 % 1007,7 hPa 0,0 l/m 0 min 0 min 0 W/m 16,1 km/h (3 Bft) 100,00 %
14.01.2020 01:54 8,6 C 7,8 C 7,2 C 91 % 1007,7 hPa 0,0 l/m 0 min 0 min 0 W/m 12,9 km/h (3 Bft) 97,87 %
14.01.2020 01:56 8,6 C 7,8 C 7,2 C 91 % 1007,7 hPa 0,0 l/m 0 min 0 min 0 W/m 16,1 km/h (3 Bft) 100,00 %
14.01.2020 01:58 8,6 C 7,8 C 7,2 C 91 % 1007,7 hPa 0,0 l/m 0 min 0 min 0 W/m 19,3 km/h (3 Bft) 100,00 %
14.01.2020 02:00 8,6 C 7,8 C 7,2 C 91 % 1007,7 hPa 0,0 l/m 0 min 0 min 0 W/m 16,1 km/h (3 Bft) 100,00 %
14.01.2020 02:02 8,6 C 7,8 C 7,2 C 91 % 1007,6 hPa 0,0 l/m 0 min 0 min 0 W/m 16,1 km/h (3 Bft) 97,87 %
14.01.2020 02:04 8,6 C 7,8 C 7,2 C 91 % 1007,7 hPa 0,0 l/m 0 min 0 min 0 W/m 16,1 km/h (3 Bft) 97,87 %
14.01.2020 02:06 8,6 C 8,3 C 7,2 C 91 % 1007,6 hPa 0,0 l/m 0 min 0 min 0 W/m 19,3 km/h (3 Bft) 100,00 %
14.01.2020 02:08 8,6 C 8,9 C 7,8 C 92 % 1007,6 hPa 0,0 l/m 0 min 0 min 0 W/m 19,3 km/h (3 Bft) 100,00 %
14.01.2020 02:10 8,7 C 8,9 C 7,8 C 92 % 1007,6 hPa 0,0 l/m 0 min 0 min 0 W/m 19,3 km/h (3 Bft) 100,00 %
14.01.2020 02:12 8,8 C 9,4 C 8,3 C 92 % 1007,6 hPa 0,0 l/m 0 min 0 min 0 W/m 25,7 km/h (4 Bft) 97,87 %
14.01.2020 02:14 8,9 C 9,4 C 8,9 C 92 % 1007,6 hPa 0,0 l/m 0 min 0 min 0 W/m 22,5 km/h (4 Bft) 100,00 %
14.01.2020 02:16 9,0 C 9,4 C 8,9 C 92 % 1007,5 hPa 0,0 l/m 0 min 0 min 0 W/m 22,5 km/h (4 Bft) 97,87 %
14.01.2020 02:18 9,1 C 9,4 C 8,9 C 91 % 1007,5 hPa 0,0 l/m 0 min 0 min 0 W/m 35,4 km/h (5 Bft) 97,87 %
14.01.2020 02:20 9,3 C 9,4 C 8,9 C 91 % 1007,6 hPa 0,0 l/m 0 min 0 min 0 W/m 29,0 km/h (5 Bft) 97,87 %
14.01.2020 02:22 9,3 C 9,4 C 8,9 C 91 % 1007,5 hPa 0,0 l/m 0 min 0 min 0 W/m 16,1 km/h (3 Bft) 97,83 %
14.01.2020 02:24 9,4 C 9,4 C 8,9 C 91 % 1007,5 hPa 0,0 l/m 0 min 0 min 0 W/m 29,0 km/h (5 Bft) 95,74 %
14.01.2020 02:26 9,6 C 9,4 C 8,9 C 91 % 1007,5 hPa 0,0 l/m 0 min 0 min 0 W/m 29,0 km/h (5 Bft) 95,74 %
14.01.2020 02:28 9,6 C 9,4 C 8,9 C 90 % 1007,4 hPa 0,0 l/m 0 min 0 min 0 W/m 22,5 km/h (4 Bft) 93,62 %
14.01.2020 02:30 9,7 C 9,4 C 8,9 C 90 % 1007,3 hPa 0,0 l/m 0 min 0 min 0 W/m 25,7 km/h (4 Bft) 95,74 %
14.01.2020 02:32 9,8 C 9,4 C 8,9 C 90 % 1007,2 hPa 0,0 l/m 0 min 0 min 0 W/m 29,0 km/h (5 Bft) 95,74 %
14.01.2020 02:34 9,8 C 9,4 C 8,9 C 89 % 1007,2 hPa 0,0 l/m 0 min 0 min 0 W/m 25,7 km/h (4 Bft) 95,65 %
14.01.2020 02:36 9,9 C 9,4 C 8,9 C 89 % 1007,3 hPa 0,0 l/m 0 min 0 min 0 W/m 29,0 km/h (5 Bft) 93,62 %
14.01.2020 02:38 9,9 C 9,4 C 8,9 C 89 % 1007,2 hPa 0,0 l/m 0 min 0 min 0 W/m 19,3 km/h (3 Bft) 93,62 %
14.01.2020 02:40 10,0 C 9,4 C 8,9 C 88 % 1007,2 hPa 0,0 l/m 0 min 0 min 0 W/m 19,3 km/h (3 Bft) 95,74 %
14.01.2020 02:42 10,1 C 9,4 C 8,9 C 88 % 1007,2 hPa 0,0 l/m 0 min 0 min 0 W/m 29,0 km/h (5 Bft) 95,74 %
14.01.2020 02:44 10,1 C 10,0 C 8,9 C 88 % 1007,3 hPa 0,0 l/m 0 min 0 min 0 W/m 32,2 km/h (5 Bft) 93,48 %
14.01.2020 02:46 10,1 C 10,0 C 8,9 C 88 % 1007,3 hPa 0,0 l/m 0 min 0 min 0 W/m 22,5 km/h (4 Bft) 95,74 %
14.01.2020 02:48 10,2 C 10,0 C 8,9 C 88 % 1007,3 hPa 0,0 l/m 0 min 0 min 0 W/m 35,4 km/h (5 Bft) 95,74 %
14.01.2020 02:50 10,2 C 10,0 C 8,9 C 87 % 1007,3 hPa 0,0 l/m 0 min 0 min 0 W/m 22,5 km/h (4 Bft) 93,62 %
14.01.2020 02:52 10,2 C 10,0 C 8,9 C 87 % 1007,4 hPa 0,0 l/m 0 min 0 min 0 W/m 29,0 km/h (5 Bft) 97,87 %
14.01.2020 02:54 10,2 C 10,0 C 8,9 C 87 % 1007,3 hPa 0,0 l/m 0 min 0 min 0 W/m 25,7 km/h (4 Bft) 95,74 %
14.01.2020 02:56 10,3 C 10,0 C 8,9 C 87 % 1007,3 hPa 0,0 l/m 0 min 0 min 0 W/m 29,0 km/h (5 Bft) 91,30 %
14.01.2020 02:58 10,3 C 10,0 C 8,9 C 87 % 1007,2 hPa 0,0 l/m 0 min 0 min 0 W/m 22,5 km/h (4 Bft) 93,62 %
14.01.2020 03:00 10,3 C 10,0 C 8,9 C 87 % 1007,2 hPa 0,0 l/m 0 min 0 min 0 W/m 35,4 km/h (5 Bft) 95,74 %
14.01.2020 03:02 10,3 C 10,0 C 8,9 C 87 % 1007,3 hPa 0,0 l/m 0 min 0 min 0 W/m 35,4 km/h (5 Bft) 93,62 %
14.01.2020 03:04 10,4 C 10,0 C 8,9 C 87 % 1007,2 hPa 0,0 l/m 0 min 0 min 0 W/m 32,2 km/h (5 Bft) 97,87 %
14.01.2020 03:06 10,4 C 10,0 C 8,9 C 87 % 1007,1 hPa 0,0 l/m 0 min 0 min 0 W/m 29,0 km/h (5 Bft) 97,87 %
14.01.2020 03:08 10,4 C 10,0 C 8,9 C 87 % 1006,9 hPa 0,0 l/m 0 min 0 min 0 W/m 38,6 km/h (5 Bft) 100,00 %
14.01.2020 03:10 10,4 C 10,0 C 8,9 C 86 % 1007,0 hPa 0,0 l/m 0 min 0 min 0 W/m 29,0 km/h (5 Bft) 100,00 %
14.01.2020 03:12 10,4 C 10,0 C 8,9 C 86 % 1007,0 hPa 0,0 l/m 0 min 0 min 0 W/m 29,0 km/h (5 Bft) 97,87 %
14.01.2020 03:14 10,4 C 10,0 C 8,9 C 86 % 1006,9 hPa 0,0 l/m 0 min 0 min 0 W/m 29,0 km/h (5 Bft) 100,00 %
14.01.2020 03:16 10,4 C 10,0 C 9,4 C 86 % 1006,9 hPa 0,0 l/m 0 min 0 min 0 W/m 29,0 km/h (5 Bft) 100,00 %
14.01.2020 03:18 10,5 C 10,0 C 8,9 C 86 % 1006,9 hPa 0,0 l/m 0 min 0 min 0 W/m 25,7 km/h (4 Bft) 100,00 %
14.01.2020 03:20 10,5 C 10,0 C 9,4 C 86 % 1006,8 hPa 0,0 l/m 0 min 0 min 0 W/m 32,2 km/h (5 Bft) 97,83 %
14.01.2020 03:22 10,5 C 10,0 C 9,4 C 86 % 1006,8 hPa 0,0 l/m 0 min 0 min 0 W/m 38,6 km/h (5 Bft) 97,87 %
14.01.2020 03:24 10,5 C 10,0 C 8,9 C 86 % 1006,8 hPa 0,0 l/m 0 min 0 min 0 W/m 22,5 km/h (4 Bft) 100,00 %
14.01.2020 03:26 10,5 C 10,0 C 8,9 C 86 % 1006,9 hPa 0,0 l/m 0 min 0 min 0 W/m 25,7 km/h (4 Bft) 100,00 %
14.01.2020 03:28 10,5 C 10,0 C 8,9 C 86 % 1006,8 hPa 0,0 l/m 0 min 0 min 0 W/m 29,0 km/h (5 Bft) 97,87 %
14.01.2020 03:30 10,5 C 10,0 C 9,4 C 86 % 1006,8 hPa 0,0 l/m 0 min 0 min 0 W/m 29,0 km/h (5 Bft) 100,00 %
14.01.2020 03:32 10,5 C 10,0 C 8,9 C 86 % 1006,7 hPa 0,0 l/m 0 min 0 min 0 W/m 25,7 km/h (4 Bft) 100,00 %
14.01.2020 03:34 10,5 C 10,0 C 8,9 C 86 % 1006,7 hPa 0,0 l/m 0 min 0 min 0 W/m 38,6 km/h (5 Bft) 97,87 %
14.01.2020 03:36 10,5 C 10,0 C 8,9 C 86 % 1006,6 hPa 0,0 l/m 0 min 0 min 0 W/m 29,0 km/h (5 Bft) 97,87 %
14.01.2020 03:38 10,6 C 10,0 C 8,9 C 86 % 1006,6 hPa 0,0 l/m 0 min 0 min 0 W/m 35,4 km/h (5 Bft) 97,87 %
14.01.2020 03:40 10,6 C 10,0 C 8,9 C 86 % 1006,5 hPa 0,0 l/m 0 min 0 min 0 W/m 25,7 km/h (4 Bft) 97,87 %
14.01.2020 03:42 10,5 C 10,0 C 8,9 C 86 % 1006,4 hPa 0,0 l/m 0 min 0 min 0 W/m 19,3 km/h (3 Bft) 100,00 %
14.01.2020 03:44 10,6 C 10,0 C 9,4 C 86 % 1006,4 hPa 0,0 l/m 0 min 0 min 0 W/m 48,3 km/h (6 Bft) 97,87 %
14.01.2020 03:46 10,6 C 10,0 C 8,9 C 86 % 1006,4 hPa 0,0 l/m 0 min 0 min 0 W/m 29,0 km/h (5 Bft) 95,74 %
14.01.2020 03:48 10,5 C 10,0 C 9,4 C 86 % 1006,6 hPa 0,0 l/m 0 min 0 min 0 W/m 29,0 km/h (5 Bft) 97,87 %
14.01.2020 03:50 10,5 C 10,0 C 9,4 C 86 % 1006,5 hPa 0,0 l/m 0 min 0 min 0 W/m 22,5 km/h (4 Bft) 97,87 %
14.01.2020 03:52 10,6 C 10,0 C 9,4 C 86 % 1006,4 hPa 0,0 l/m 0 min 0 min 0 W/m 25,7 km/h (4 Bft) 95,74 %
14.01.2020 03:54 10,6 C 10,0 C 9,4 C 86 % 1006,4 hPa 0,0 l/m 0 min 0 min 0 W/m 22,5 km/h (4 Bft) 97,83 %
14.01.2020 03:56 10,6 C 10,0 C 9,4 C 86 % 1006,4 hPa 0,0 l/m 0 min 0 min 0 W/m 22,5 km/h (4 Bft) 97,87 %
14.01.2020 03:58 10,6 C 10,0 C 9,4 C 86 % 1006,2 hPa 0,0 l/m 0 min 0 min 0 W/m 29,0 km/h (5 Bft) 97,87 %
14.01.2020 04:00 10,6 C 10,0 C 9,4 C 85 % 1006,1 hPa 0,0 l/m 0 min 0 min 0 W/m 35,4 km/h (5 Bft) 95,83 %
14.01.2020 04:05 10,6 C 10,0 C 9,4 C 85 % 1006,0 hPa 0,0 l/m 0 min 0 min 0 W/m 35,4 km/h (5 Bft) 97,06 %
14.01.2020 04:06 10,6 C 10,0 C 9,4 C 85 % 1006,0 hPa 0,0 l/m 0 min 0 min 0 W/m 19,3 km/h (3 Bft) 100,00 %
14.01.2020 04:08 10,6 C 10,0 C 9,4 C 85 % 1006,1 hPa 0,0 l/m 0 min 0 min 0 W/m 25,7 km/h (4 Bft) 97,87 %
14.01.2020 04:10 10,6 C 10,0 C 9,4 C 85 % 1006,0 hPa 0,0 l/m 0 min 0 min 0 W/m 29,0 km/h (5 Bft) 95,74 %
14.01.2020 04:12 10,6 C 10,0 C 9,4 C 85 % 1006,1 hPa 0,0 l/m 0 min 0 min 0 W/m 32,2 km/h (5 Bft) 97,87 %
14.01.2020 04:14 10,7 C 10,0 C 9,4 C 85 % 1006,1 hPa 0,0 l/m 0 min 0 min 0 W/m 32,2 km/h (5 Bft) 97,87 %
14.01.2020 04:16 10,7 C 10,0 C 9,4 C 85 % 1006,1 hPa 0,0 l/m 0 min 0 min 0 W/m 35,4 km/h (5 Bft) 95,65 %
14.01.2020 04:18 10,7 C 10,0 C 9,4 C 85 % 1006,0 hPa 0,0 l/m 0 min 0 min 0 W/m 22,5 km/h (4 Bft) 52,38 %
14.01.2020 04:20 10,7 C 10,0 C 9,4 C 85 % 1006,1 hPa 0,0 l/m 0 min 0 min 0 W/m 35,4 km/h (5 Bft) 97,87 %
14.01.2020 04:22 10,7 C 10,0 C 9,4 C 85 % 1006,0 hPa 0,0 l/m 0 min 0 min 0 W/m 25,7 km/h (4 Bft) 97,87 %
14.01.2020 04:24 10,8 C 10,0 C 9,4 C 85 % 1006,0 hPa 0,0 l/m 0 min 0 min 0 W/m 16,1 km/h (3 Bft) 97,87 %
14.01.2020 04:26 10,8 C 10,0 C 9,4 C 84 % 1005,9 hPa 0,0 l/m 0 min 2 min 0 W/m 29,0 km/h (5 Bft) 97,87 %
14.01.2020 04:28 10,8 C 10,0 C 9,4 C 84 % 1006,0 hPa 0,0 l/m 0 min 0 min 0 W/m 0,0 km/h (0 Bft) 97,83 %
14.01.2020 04:30 10,8 C 10,0 C 9,4 C 84 % 1006,0 hPa 0,0 l/m 0 min 0 min 0 W/m 0,0 km/h (0 Bft) 100,00 %
14.01.2020 04:32 10,8 C 10,0 C 9,4 C 84 % 1005,9 hPa 0,0 l/m 0 min 0 min 0 W/m 0,0 km/h (0 Bft) 100,00 %
14.01.2020 04:34 10,8 C 10,0 C 9,4 C 84 % 1005,9 hPa 0,0 l/m 0 min 0 min 0 W/m 0,0 km/h (0 Bft) 97,87 %
14.01.2020 04:36 10,8 C 10,0 C 9,4 C 84 % 1006,0 hPa 0,0 l/m 0 min 0 min 0 W/m 3,2 km/h (1 Bft) 100,00 %
14.01.2020 04:38 10,8 C 10,0 C 9,4 C 84 % 1006,0 hPa 0,0 l/m 0 min 0 min 0 W/m 16,1 km/h (3 Bft) 100,00 %
14.01.2020 04:40 10,8 C 9,4 C 8,9 C 84 % 1006,0 hPa 0,0 l/m 0 min 0 min 0 W/m 3,2 km/h (1 Bft) 100,00 %
14.01.2020 04:42 10,7 C 9,4 C 8,9 C 85 % 1005,9 hPa 0,0 l/m 0 min 0 min 0 W/m 19,3 km/h (3 Bft) 100,00 %
14.01.2020 04:44 10,7 C 9,4 C 8,9 C 84 % 1006,0 hPa 0,0 l/m 0 min 2 min 0 W/m 0,0 km/h (0 Bft) 97,87 %
14.01.2020 04:46 10,6 C 9,4 C 8,9 C 85 % 1006,0 hPa 0,0 l/m 0 min 0 min 0 W/m 3,2 km/h (1 Bft) 95,74 %
14.01.2020 04:48 10,6 C 9,4 C 8,9 C 85 % 1006,0 hPa 0,0 l/m 0 min 0 min 0 W/m 12,9 km/h (3 Bft) 93,62 %
14.01.2020 04:50 10,6 C 8,9 C 8,3 C 85 % 1006,0 hPa 0,0 l/m 0 min 2 min 0 W/m 16,1 km/h (3 Bft) 100,00 %
14.01.2020 04:52 10,4 C 8,9 C 8,3 C 85 % 1005,9 hPa 0,0 l/m 0 min 0 min 0 W/m 3,2 km/h (1 Bft) 97,83 %
14.01.2020 04:54 10,4 C 8,3 C 8,3 C 85 % 1006,0 hPa 0,0 l/m 0 min 2 min 0 W/m 25,7 km/h (4 Bft) 100,00 %
14.01.2020 04:56 10,3 C 8,3 C 7,8 C 85 % 1006,0 hPa 0,0 l/m 0 min 2 min 0 W/m 0,0 km/h (0 Bft) 97,87 %
14.01.2020 04:58 10,3 C 8,3 C 7,8 C 86 % 1006,0 hPa 0,0 l/m 0 min 2 min 0 W/m 19,3 km/h (3 Bft) 95,74 %
14.01.2020 05:00 10,3 C 8,3 C 7,8 C 86 % 1006,0 hPa 0,0 l/m 0 min 2 min 0 W/m 0,0 km/h (0 Bft) 95,74 %
14.01.2020 05:02 10,2 C 8,3 C 7,8 C 86 % 1005,9 hPa 0,0 l/m 0 min 2 min 0 W/m 3,2 km/h (1 Bft) 97,87 %
14.01.2020 05:04 10,2 C 7,8 C 7,8 C 86 % 1005,9 hPa 0,0 l/m 0 min 2 min 0 W/m 0,0 km/h (0 Bft) 97,83 %
14.01.2020 05:06 10,1 C 7,8 C 7,2 C 86 % 1005,9 hPa 0,0 l/m 0 min 2 min 0 W/m 0,0 km/h (0 Bft) 97,87 %
14.01.2020 05:08 10,1 C 8,3 C 7,2 C 87 % 1005,8 hPa 0,0 l/m 0 min 2 min 0 W/m 35,4 km/h (5 Bft) 95,74 %
14.01.2020 05:10 10,1 C 8,3 C 7,8 C 87 % 1005,8 hPa 0,0 l/m 0 min 2 min 0 W/m 22,5 km/h (4 Bft) 95,74 %
14.01.2020 05:12 10,0 C 7,8 C 7,2 C 87 % 1005,8 hPa 0,0 l/m 0 min 2 min 0 W/m 3,2 km/h (1 Bft) 93,62 %
14.01.2020 05:14 10,0 C 7,8 C 7,2 C 87 % 1005,7 hPa 0,0 l/m 0 min 2 min 0 W/m 29,0 km/h (5 Bft) 95,65 %
14.01.2020 05:16 9,9 C 7,8 C 7,2 C 88 % 1005,8 hPa 0,0 l/m 0 min 2 min 0 W/m 0,0 km/h (0 Bft) 95,74 %
14.01.2020 05:18 9,9 C 7,8 C 7,2 C 88 % 1005,8 hPa 0,0 l/m 0 min 2 min 0 W/m 3,2 km/h (1 Bft) 95,74 %
14.01.2020 05:20 9,9 C 7,8 C 7,2 C 88 % 1005,7 hPa 0,0 l/m 0 min 2 min 0 W/m 0,0 km/h (0 Bft) 95,74 %
14.01.2020 05:22 9,9 C 7,8 C 7,2 C 88 % 1005,8 hPa 0,0 l/m 0 min 2 min 0 W/m 0,0 km/h (0 Bft) 95,74 %
14.01.2020 05:24 9,9 C 8,3 C 7,2 C 88 % 1005,8 hPa 0,0 l/m 0 min 2 min 0 W/m 0,0 km/h (0 Bft) 95,74 %
14.01.2020 05:26 9,9 C 8,3 C 7,8 C 88 % 1005,8 hPa 0,0 l/m 0 min 2 min 0 W/m 35,4 km/h (5 Bft) 95,65 %
14.01.2020 05:28 9,9 C 8,3 C 7,8 C 88 % 1005,8 hPa 0,0 l/m 0 min 2 min 0 W/m 32,2 km/h (5 Bft) 95,74 %
14.01.2020 05:30 9,9 C 8,3 C 7,8 C 88 % 1005,8 hPa 0,0 l/m 0 min 2 min 0 W/m 12,9 km/h (3 Bft) 95,74 %
14.01.2020 05:32 9,9 C 8,3 C 7,8 C 88 % 1005,8 hPa 0,0 l/m 0 min 2 min 0 W/m 19,3 km/h (3 Bft) 93,62 %
14.01.2020 05:34 10,0 C 8,3 C 7,8 C 88 % 1005,8 hPa 0,0 l/m 0 min 2 min 0 W/m 32,2 km/h (5 Bft) 95,74 %
14.01.2020 05:36 10,1 C 8,9 C 7,8 C 88 % 1005,7 hPa 0,0 l/m 0 min 2 min 0 W/m 35,4 km/h (5 Bft) 95,74 %
14.01.2020 05:38 10,1 C 8,9 C 7,8 C 88 % 1005,8 hPa 0,0 l/m 0 min 2 min 0 W/m 41,8 km/h (6 Bft) 95,65 %
14.01.2020 05:40 10,1 C 8,9 C 7,8 C 88 % 1005,9 hPa 0,0 l/m 0 min 2 min 0 W/m 38,6 km/h (5 Bft) 95,74 %
14.01.2020 05:42 10,1 C 8,3 C 7,8 C 88 % 1005,8 hPa 0,0 l/m 0 min 2 min 0 W/m 16,1 km/h (3 Bft) 95,74 %
14.01.2020 05:44 10,2 C 8,3 C 7,8 C 87 % 1005,8 hPa 0,0 l/m 0 min 2 min 0 W/m 35,4 km/h (5 Bft) 95,74 %
14.01.2020 05:46 10,2 C 8,3 C 7,8 C 87 % 1005,7 hPa 0,0 l/m 0 min 2 min 0 W/m 25,7 km/h (4 Bft) 97,87 %
14.01.2020 05:48 10,2 C 8,9 C 7,8 C 87 % 1005,6 hPa 0,0 l/m 0 min 2 min 0 W/m 25,7 km/h (4 Bft) 97,87 %
14.01.2020 05:50 10,2 C 8,3 C 7,8 C 87 % 1005,8 hPa 0,2 l/m 0 min 2 min 0 W/m 29,0 km/h (5 Bft) 97,83 %
14.01.2020 05:52 10,2 C 8,3 C 7,8 C 87 % 1005,7 hPa 0,0 l/m 0 min 2 min 0 W/m 25,7 km/h (4 Bft) 97,87 %
14.01.2020 05:54 10,2 C 7,8 C 7,2 C 87 % 1005,7 hPa 0,0 l/m 0 min 2 min 0 W/m 29,0 km/h (5 Bft) 100,00 %
14.01.2020 05:56 10,2 C 7,8 C 7,2 C 87 % 1005,8 hPa 0,0 l/m 0 min 2 min 0 W/m 38,6 km/h (5 Bft) 100,00 %
14.01.2020 05:58 10,2 C 7,8 C 7,2 C 87 % 1005,7 hPa 0,0 l/m 0 min 2 min 0 W/m 38,6 km/h (5 Bft) 100,00 %
14.01.2020 06:00 10,2 C 7,8 C 7,2 C 87 % 1005,7 hPa 0,0 l/m 0 min 2 min 0 W/m 29,0 km/h (5 Bft) 100,00 %
14.01.2020 06:02 10,2 C 7,8 C 7,2 C 87 % 1005,8 hPa 0,0 l/m 0 min 2 min 0 W/m 29,0 km/h (5 Bft) 100,00 %
14.01.2020 06:04 10,1 C 7,8 C 7,2 C 87 % 1005,7 hPa 0,0 l/m 0 min 2 min 0 W/m 35,4 km/h (5 Bft) 100,00 %
14.01.2020 06:06 10,1 C 7,8 C 7,2 C 88 % 1005,8 hPa 0,0 l/m 0 min 2 min 0 W/m 25,7 km/h (4 Bft) 100,00 %
14.01.2020 06:08 10,1 C 8,3 C 7,2 C 88 % 1005,6 hPa 0,0 l/m 0 min 2 min 0 W/m 32,2 km/h (5 Bft) 100,00 %
14.01.2020 06:10 10,1 C 8,3 C 7,2 C 87 % 1005,6 hPa 0,0 l/m 0 min 2 min 0 W/m 32,2 km/h (5 Bft) 100,00 %
14.01.2020 06:12 10,1 C 8,3 C 7,2 C 87 % 1005,7 hPa 0,0 l/m 0 min 2 min 0 W/m 45,1 km/h (6 Bft) 100,00 %
14.01.2020 06:14 10,1 C 8,3 C 7,2 C 87 % 1005,6 hPa 0,0 l/m 0 min 2 min 0 W/m 38,6 km/h (5 Bft) 100,00 %
14.01.2020 06:16 10,1 C 8,3 C 7,2 C 87 % 1005,6 hPa 0,0 l/m 0 min 2 min 0 W/m 41,8 km/h (6 Bft) 100,00 %
14.01.2020 06:18 10,0 C 8,3 C 7,2 C 87 % 1005,7 hPa 0,0 l/m 0 min 2 min 0 W/m 32,2 km/h (5 Bft) 100,00 %
14.01.2020 06:20 10,0 C 8,3 C 7,2 C 87 % 1005,7 hPa 0,0 l/m 0 min 2 min 0 W/m 35,4 km/h (5 Bft) 100,00 %
14.01.2020 06:22 10,0 C 7,8 C 7,2 C 87 % 1005,7 hPa 0,0 l/m 0 min 2 min 0 W/m 32,2 km/h (5 Bft) 100,00 %
14.01.2020 06:24 10,0 C 7,8 C 7,2 C 87 % 1005,7 hPa 0,0 l/m 0 min 2 min 0 W/m 32,2 km/h (5 Bft) 100,00 %
14.01.2020 06:26 10,0 C 7,8 C 7,2 C 87 % 1005,7 hPa 0,0 l/m 0 min 2 min 0 W/m 32,2 km/h (5 Bft) 100,00 %
14.01.2020 06:28 9,9 C 7,8 C 7,2 C 87 % 1005,8 hPa 0,0 l/m 0 min 2 min 0 W/m 29,0 km/h (5 Bft) 100,00 %
14.01.2020 06:30 9,9 C 7,8 C 7,2 C 87 % 1005,8 hPa 0,0 l/m 0 min 2 min 0 W/m 32,2 km/h (5 Bft) 100,00 %
14.01.2020 06:32 9,9 C 7,8 C 7,2 C 87 % 1005,8 hPa 0,0 l/m 0 min 2 min 0 W/m 32,2 km/h (5 Bft) 100,00 %
14.01.2020 06:34 9,9 C 7,8 C 7,2 C 87 % 1005,8 hPa 0,0 l/m 0 min 2 min 0 W/m 29,0 km/h (5 Bft) 100,00 %
14.01.2020 06:36 9,9 C 7,8 C 7,2 C 87 % 1005,8 hPa 0,0 l/m 0 min 2 min 0 W/m 25,7 km/h (4 Bft) 97,83 %
14.01.2020 06:38 9,9 C 7,8 C 7,2 C 87 % 1005,9 hPa 0,0 l/m 0 min 2 min 0 W/m 32,2 km/h (5 Bft) 100,00 %
14.01.2020 06:40 9,9 C 7,8 C 7,2 C 87 % 1005,9 hPa 0,0 l/m 0 min 2 min 0 W/m 32,2 km/h (5 Bft) 100,00 %
14.01.2020 06:42 9,9 C 7,8 C 7,2 C 87 % 1006,0 hPa 0,2 l/m 0 min 2 min 0 W/m 29,0 km/h (5 Bft) 100,00 %
14.01.2020 06:44 9,9 C 7,2 C 7,2 C 87 % 1006,0 hPa 0,0 l/m 0 min 2 min 0 W/m 41,8 km/h (6 Bft) 100,00 %
14.01.2020 06:46 9,9 C 7,2 C 7,2 C 87 % 1006,0 hPa 0,0 l/m 0 min 2 min 0 W/m 25,7 km/h (4 Bft) 100,00 %
14.01.2020 06:48 9,8 C 7,2 C 7,2 C 87 % 1005,9 hPa 0,0 l/m 0 min 2 min 0 W/m 38,6 km/h (5 Bft) 100,00 %
14.01.2020 06:50 9,8 C 7,2 C 7,2 C 87 % 1006,0 hPa 0,0 l/m 0 min 2 min 0 W/m 35,4 km/h (5 Bft) 100,00 %
14.01.2020 06:52 9,8 C 7,2 C 7,2 C 87 % 1006,0 hPa 0,0 l/m 0 min 2 min 0 W/m 35,4 km/h (5 Bft) 100,00 %
14.01.2020 06:54 9,8 C 7,2 C 6,7 C 87 % 1006,0 hPa 0,0 l/m 0 min 2 min 0 W/m 35,4 km/h (5 Bft) 100,00 %
14.01.2020 06:56 9,8 C 7,2 C 6,7 C 88 % 1006,0 hPa 0,0 l/m 0 min 2 min 0 W/m 19,3 km/h (3 Bft) 100,00 %
14.01.2020 06:58 9,8 C 7,2 C 6,7 C 88 % 1005,9 hPa 0,0 l/m 0 min 2 min 0 W/m 29,0 km/h (5 Bft) 97,87 %
14.01.2020 07:00 9,7 C 7,2 C 7,2 C 88 % 1006,0 hPa 0,0 l/m 0 min 2 min 0 W/m 35,4 km/h (5 Bft) 100,00 %
14.01.2020 07:02 9,7 C 7,2 C 7,2 C 88 % 1006,0 hPa 0,0 l/m 0 min 2 min 0 W/m 41,8 km/h (6 Bft) 100,00 %
14.01.2020 07:04 9,7 C 7,2 C 7,2 C 88 % 1006,0 hPa 0,0 l/m 0 min 2 min 0 W/m 32,2 km/h (5 Bft) 95,74 %
14.01.2020 07:06 9,7 C 7,2 C 7,2 C 88 % 1006,0 hPa 0,0 l/m 0 min 2 min 0 W/m 45,1 km/h (6 Bft) 97,87 %
14.01.2020 07:08 9,7 C 7,2 C 7,2 C 88 % 1006,0 hPa 0,0 l/m 0 min 2 min 0 W/m 29,0 km/h (5 Bft) 97,87 %
14.01.2020 07:10 9,7 C 7,2 C 7,2 C 88 % 1006,1 hPa 0,0 l/m 0 min 2 min 0 W/m 29,0 km/h (5 Bft) 97,87 %
14.01.2020 07:12 9,7 C 7,2 C 7,2 C 88 % 1006,0 hPa 0,0 l/m 0 min 2 min 0 W/m 25,7 km/h (4 Bft) 97,83 %
14.01.2020 07:14 9,7 C 7,2 C 7,2 C 88 % 1006,1 hPa 0,0 l/m 0 min 2 min 0 W/m 22,5 km/h (4 Bft) 97,87 %
14.01.2020 07:16 9,7 C 7,8 C 7,2 C 88 % 1006,0 hPa 0,0 l/m 0 min 2 min 0 W/m 41,8 km/h (6 Bft) 97,87 %
14.01.2020 07:18 9,7 C 7,8 C 7,2 C 88 % 1005,9 hPa 0,0 l/m 0 min 2 min 0 W/m 41,8 km/h (6 Bft) 95,74 %
14.01.2020 07:20 9,7 C 7,8 C 7,2 C 88 % 1006,0 hPa 0,0 l/m 0 min 2 min 0 W/m 38,6 km/h (5 Bft) 97,87 %
14.01.2020 07:22 9,7 C 7,8 C 7,2 C 88 % 1005,9 hPa 0,0 l/m 0 min 0 min 0 W/m 25,7 km/h (4 Bft) 97,83 %
14.01.2020 07:24 9,7 C 7,8 C 7,2 C 88 % 1005,8 hPa 0,0 l/m 0 min 2 min 0 W/m 29,0 km/h (5 Bft) 97,87 %
14.01.2020 07:26 9,7 C 7,8 C 7,2 C 88 % 1005,8 hPa 0,0 l/m 0 min 2 min 0 W/m 32,2 km/h (5 Bft) 97,87 %
14.01.2020 07:28 9,7 C 7,8 C 7,2 C 88 % 1005,8 hPa 0,0 l/m 0 min 2 min 0 W/m 35,4 km/h (5 Bft) 97,87 %
14.01.2020 07:30 9,7 C 8,3 C 7,2 C 88 % 1005,9 hPa 0,0 l/m 0 min 0 min 0 W/m 35,4 km/h (5 Bft) 97,87 %
14.01.2020 07:32 9,7 C 8,3 C 7,2 C 88 % 1006,0 hPa 0,0 l/m 0 min 2 min 0 W/m 41,8 km/h (6 Bft) 97,87 %
14.01.2020 07:34 9,7 C 7,8 C 7,2 C 88 % 1005,9 hPa 0,0 l/m 0 min 2 min 0 W/m 22,5 km/h (4 Bft) 95,65 %
14.01.2020 07:36 9,7 C 8,3 C 7,8 C 87 % 1005,8 hPa 0,0 l/m 0 min 0 min 0 W/m 25,7 km/h (4 Bft) 97,87 %
14.01.2020 07:38 9,7 C 8,3 C 7,8 C 87 % 1005,9 hPa 0,0 l/m 0 min 0 min 0 W/m 32,2 km/h (5 Bft) 97,87 %
14.01.2020 07:40 9,7 C 8,3 C 7,8 C 87 % 1005,8 hPa 0,0 l/m 0 min 0 min 0 W/m 38,6 km/h (5 Bft) 95,74 %
14.01.2020 07:42 9,7 C 8,3 C 7,8 C 87 % 1005,9 hPa 0,0 l/m 0 min 0 min 0 W/m 38,6 km/h (5 Bft) 97,87 %
14.01.2020 07:44 9,7 C 8,3 C 7,8 C 87 % 1006,1 hPa 0,0 l/m 0 min 0 min 0 W/m 25,7 km/h (4 Bft) 95,74 %
14.01.2020 07:46 9,7 C 8,3 C 7,8 C 87 % 1006,1 hPa 0,0 l/m 0 min 0 min 0 W/m 25,7 km/h (4 Bft) 95,65 %
14.01.2020 07:48 9,7 C 8,3 C 7,8 C 87 % 1006,1 hPa 0,0 l/m 0 min 0 min 0 W/m 32,2 km/h (5 Bft) 95,74 %
14.01.2020 07:50 9,7 C 8,3 C 7,8 C 87 % 1006,2 hPa 0,0 l/m 0 min 0 min 0 W/m 35,4 km/h (5 Bft) 93,62 %
14.01.2020 07:52 9,8 C 8,3 C 7,8 C 87 % 1006,2 hPa 0,0 l/m 0 min 0 min 0 W/m 29,0 km/h (5 Bft) 91,49 %
14.01.2020 07:54 9,8 C 8,3 C 7,8 C 87 % 1006,2 hPa 0,0 l/m 0 min 0 min 0 W/m 32,2 km/h (5 Bft) 93,62 %
14.01.2020 07:56 9,8 C 8,3 C 8,3 C 87 % 1006,2 hPa 0,0 l/m 0 min 2 min 0 W/m 32,2 km/h (5 Bft) 93,62 %
14.01.2020 07:58 9,8 C 8,3 C 8,3 C 86 % 1006,2 hPa 0,0 l/m 0 min 0 min 0 W/m 29,0 km/h (5 Bft) 93,48 %
14.01.2020 08:00 9,8 C 8,3 C 7,8 C 86 % 1006,2 hPa 0,0 l/m 0 min 0 min 0 W/m 22,5 km/h (4 Bft) 93,62 %
14.01.2020 08:02 9,8 C 8,3 C 7,8 C 86 % 1006,2 hPa 0,0 l/m 0 min 0 min 0 W/m 22,5 km/h (4 Bft) 95,74 %
14.01.2020 08:04 9,8 C 8,3 C 8,3 C 86 % 1006,2 hPa 0,0 l/m 0 min 0 min 0 W/m 25,7 km/h (4 Bft) 93,62 %
14.01.2020 08:06 9,8 C 8,3 C 8,3 C 86 % 1006,2 hPa 0,0 l/m 0 min 0 min 0 W/m 35,4 km/h (5 Bft) 95,74 %
14.01.2020 08:08 9,8 C 8,3 C 8,3 C 86 % 1006,2 hPa 0,0 l/m 0 min 0 min 0 W/m 32,2 km/h (5 Bft) 93,62 %
14.01.2020 08:10 9,9 C 8,3 C 8,3 C 87 % 1006,3 hPa 0,0 l/m 0 min 0 min 0 W/m 38,6 km/h (5 Bft) 95,65 %
14.01.2020 08:12 9,9 C 8,3 C 8,3 C 87 % 1006,4 hPa 0,0 l/m 0 min 0 min 0 W/m 35,4 km/h (5 Bft) 93,62 %
14.01.2020 08:14 9,9 C 8,3 C 8,3 C 86 % 1006,2 hPa 0,0 l/m 0 min 0 min 0 W/m 32,2 km/h (5 Bft) 95,74 %
14.01.2020 08:16 9,9 C 8,3 C 8,3 C 86 % 1006,1 hPa 0,0 l/m 0 min 0 min 0 W/m 32,2 km/h (5 Bft) 95,74 %
14.01.2020 08:18 9,9 C 8,3 C 8,3 C 87 % 1006,1 hPa 0,0 l/m 0 min 0 min 0 W/m 29,0 km/h (5 Bft) 95,74 %
14.01.2020 08:20 9,9 C 8,3 C 8,3 C 87 % 1006,2 hPa 0,0 l/m 0 min 0 min 0 W/m 25,7 km/h (4 Bft) 95,65 %
14.01.2020 08:22 9,9 C 8,3 C 8,3 C 87 % 1006,3 hPa 0,0 l/m 0 min 0 min 0 W/m 19,3 km/h (3 Bft) 95,74 %
14.01.2020 08:24 9,9 C 8,3 C 8,3 C 87 % 1006,4 hPa 0,0 l/m 0 min 0 min 0 W/m 32,2 km/h (5 Bft) 93,62 %
14.01.2020 08:26 9,9 C 8,3 C 8,3 C 87 % 1006,3 hPa 0,0 l/m 0 min 0 min 0 W/m 29,0 km/h (5 Bft) 95,74 %
14.01.2020 08:28 9,9 C 8,3 C 8,3 C 87 % 1006,3 hPa 0,0 l/m 0 min 0 min 0 W/m 22,5 km/h (4 Bft) 89,36 %
14.01.2020 08:30 9,9 C 8,3 C 8,3 C 87 % 1006,3 hPa 0,0 l/m 0 min 0 min 0 W/m 29,0 km/h (5 Bft) 93,62 %
14.01.2020 08:32 9,9 C 8,3 C 8,3 C 87 % 1006,3 hPa 0,0 l/m 0 min 2 min 0 W/m 25,7 km/h (4 Bft) 97,83 %
14.01.2020 08:34 9,9 C 7,8 C 7,8 C 87 % 1006,3 hPa 0,0 l/m 0 min 0 min 0 W/m 22,5 km/h (4 Bft) 97,87 %
14.01.2020 08:36 9,9 C 7,8 C 7,8 C 87 % 1006,4 hPa 0,0 l/m 0 min 0 min 0 W/m 29,0 km/h (5 Bft) 97,87 %
14.01.2020 08:38 9,8 C 7,8 C 7,8 C 87 % 1006,4 hPa 0,0 l/m 0 min 0 min 0 W/m 25,7 km/h (4 Bft) 100,00 %
14.01.2020 08:40 9,8 C 7,8 C 7,8 C 88 % 1006,5 hPa 0,0 l/m 0 min 0 min 0 W/m 16,1 km/h (3 Bft) 100,00 %
14.01.2020 08:42 9,8 C 7,8 C 7,8 C 88 % 1006,4 hPa 0,0 l/m 0 min 0 min 0 W/m 29,0 km/h (5 Bft) 100,00 %
14.01.2020 08:44 9,8 C 8,3 C 8,3 C 88 % 1006,4 hPa 0,0 l/m 0 min 0 min 0 W/m 25,7 km/h (4 Bft) 100,00 %
14.01.2020 08:46 9,8 C 8,3 C 7,8 C 88 % 1006,5 hPa 0,0 l/m 0 min 0 min 0 W/m 19,3 km/h (3 Bft) 97,87 %
14.01.2020 08:48 9,8 C 8,3 C 8,3 C 88 % 1006,4 hPa 0,0 l/m 0 min 0 min 0 W/m 22,5 km/h (4 Bft) 97,87 %
14.01.2020 08:50 9,8 C 8,3 C 8,3 C 88 % 1006,4 hPa 0,0 l/m 0 min 0 min 0 W/m 22,5 km/h (4 Bft) 97,87 %
14.01.2020 08:52 9,8 C 8,3 C 8,3 C 88 % 1006,6 hPa 0,0 l/m 0 min 0 min 0 W/m 25,7 km/h (4 Bft) 100,00 %
14.01.2020 08:54 9,8 C 8,3 C 8,3 C 88 % 1006,5 hPa 0,0 l/m 0 min 0 min 5 W/m 29,0 km/h (5 Bft) 95,74 %
14.01.2020 08:56 9,8 C 8,3 C 8,3 C 88 % 1006,4 hPa 0,0 l/m 0 min 0 min 7 W/m 25,7 km/h (4 Bft) 100,00 %
14.01.2020 08:58 9,8 C 8,3 C 8,3 C 88 % 1006,6 hPa 0,0 l/m 0 min 0 min 9 W/m 29,0 km/h (5 Bft) 100,00 %
14.01.2020 09:00 9,8 C 8,3 C 8,3 C 88 % 1006,6 hPa 0,0 l/m 0 min 0 min 8 W/m 19,3 km/h (3 Bft) 100,00 %
14.01.2020 09:02 9,8 C 8,3 C 8,3 C 88 % 1006,7 hPa 0,0 l/m 0 min 0 min 6 W/m 29,0 km/h (5 Bft) 97,87 %
14.01.2020 09:04 9,8 C 8,9 C 8,3 C 88 % 1006,6 hPa 0,0 l/m 0 min 0 min 9 W/m 22,5 km/h (4 Bft) 97,87 %
14.01.2020 09:06 9,8 C 8,9 C 8,3 C 88 % 1006,7 hPa 0,0 l/m 0 min 0 min 8 W/m 22,5 km/h (4 Bft) 100,00 %
14.01.2020 09:08 9,8 C 8,9 C 8,3 C 89 % 1006,7 hPa 0,0 l/m 0 min 0 min 9 W/m 22,5 km/h (4 Bft) 100,00 %
14.01.2020 09:10 9,8 C 8,9 C 8,3 C 89 % 1006,8 hPa 0,0 l/m 0 min 0 min 8 W/m 16,1 km/h (3 Bft) 100,00 %
14.01.2020 09:12 9,8 C 8,9 C 8,3 C 89 % 1006,8 hPa 0,0 l/m 0 min 0 min 6 W/m 19,3 km/h (3 Bft) 100,00 %
14.01.2020 09:14 9,8 C 8,9 C 8,3 C 89 % 1006,8 hPa 0,0 l/m 0 min 0 min 5 W/m 29,0 km/h (5 Bft) 100,00 %
14.01.2020 09:16 9,8 C 8,9 C 8,9 C 89 % 1006,8 hPa 0,0 l/m 0 min 0 min 6 W/m 29,0 km/h (5 Bft) 97,87 %
14.01.2020 09:18 9,8 C 9,4 C 8,9 C 88 % 1006,9 hPa 0,0 l/m 0 min 0 min 5 W/m 29,0 km/h (5 Bft) 100,00 %
14.01.2020 09:20 9,8 C 9,4 C 8,9 C 88 % 1006,9 hPa 0,0 l/m 0 min 0 min 5 W/m 35,4 km/h (5 Bft) 100,00 %
14.01.2020 09:22 9,8 C 9,4 C 8,9 C 89 % 1006,9 hPa 0,0 l/m 0 min 0 min 5 W/m 38,6 km/h (5 Bft) 100,00 %
14.01.2020 09:24 9,8 C 9,4 C 8,9 C 88 % 1007,0 hPa 0,0 l/m 0 min 0 min 5 W/m 25,7 km/h (4 Bft) 100,00 %
14.01.2020 09:26 9,9 C 9,4 C 8,9 C 88 % 1007,0 hPa 0,0 l/m 0 min 0 min 5 W/m 25,7 km/h (4 Bft) 97,87 %
14.01.2020 09:28 9,9 C 9,4 C 8,9 C 88 % 1007,1 hPa 0,0 l/m 0 min 0 min 5 W/m 32,2 km/h (5 Bft) 100,00 %
14.01.2020 09:30 9,9 C 9,4 C 8,9 C 88 % 1007,0 hPa 0,0 l/m 0 min 0 min 6 W/m 22,5 km/h (4 Bft) 100,00 %
14.01.2020 09:32 10,0 C 9,4 C 8,9 C 88 % 1007,0 hPa 0,0 l/m 0 min 0 min 7 W/m 25,7 km/h (4 Bft) 100,00 %
14.01.2020 09:34 10,1 C 9,4 C 8,9 C 88 % 1007,0 hPa 0,0 l/m 0 min 0 min 7 W/m 22,5 km/h (4 Bft) 100,00 %
14.01.2020 09:36 10,1 C 9,4 C 8,9 C 88 % 1007,2 hPa 0,0 l/m 0 min 0 min 7 W/m 29,0 km/h (5 Bft) 100,00 %
14.01.2020 09:38 10,1 C 10,0 C 9,4 C 88 % 1007,1 hPa 0,0 l/m 0 min 0 min 7 W/m 32,2 km/h (5 Bft) 100,00 %
14.01.2020 09:40 10,2 C 10,0 C 9,4 C 88 % 1007,0 hPa 0,0 l/m 0 min 0 min 7 W/m 32,2 km/h (5 Bft) 100,00 %
14.01.2020 09:42 10,2 C 10,0 C 8,9 C 87 % 1007,0 hPa 0,0 l/m 0 min 0 min 11 W/m 19,3 km/h (3 Bft) 100,00 %
14.01.2020 09:44 10,2 C 10,0 C 8,9 C 87 % 1007,1 hPa 0,0 l/m 0 min 0 min 11 W/m 25,7 km/h (4 Bft) 100,00 %
14.01.2020 09:46 10,2 C 10,0 C 8,9 C 87 % 1007,1 hPa 0,0 l/m 0 min 0 min 10 W/m 19,3 km/h (3 Bft) 95,74 %
14.01.2020 09:48 10,3 C 10,0 C 9,4 C 87 % 1007,1 hPa 0,0 l/m 0 min 0 min 13 W/m 29,0 km/h (5 Bft) 100,00 %
14.01.2020 09:50 10,3 C 10,0 C 8,9 C 87 % 1007,0 hPa 0,0 l/m 0 min 0 min 12 W/m 19,3 km/h (3 Bft) 100,00 %
14.01.2020 09:52 10,3 C 10,0 C 9,4 C 87 % 1007,1 hPa 0,0 l/m 0 min 0 min 12 W/m 22,5 km/h (4 Bft) 100,00 %
14.01.2020 09:54 10,3 C 10,0 C 8,9 C 87 % 1006,9 hPa 0,0 l/m 0 min 0 min 12 W/m 22,5 km/h (4 Bft) 100,00 %
14.01.2020 09:56 10,3 C 10,0 C 9,4 C 87 % 1007,0 hPa 0,0 l/m 0 min 0 min 1